Content
SEND FEEDBACK

Daily
Averages
Monthly
Summary
United States of America

PUT IN BAY, OHIO


Home > North America > United States > Ohio
Elevation: 561 feet     Latitude: 41 39N     Longitude: 082 48W

WEATHER
 
SELECT A DAY
Number of Records: 125,270;   Date Range: 12/10/00 - 11/25/14
 
SHARE

PRINT THIS DATA

[ ← Previous Day ]
WEATHER ALMANAC - AUGUST 14, 2013
[ Next Day → ]
[ °C ]   °F
Weather ElementAverageHighLow
Temperature59.2 °F69.8 °F (5:00 pm)50 °F (6:00 am)
Dewpoint48.8 °F54.3 °F (8:00 pm)45.3 °F (1:00 am)
Humidity69.2 %87 % (7:00 am)38 % (2:00 pm)
Barometer30.10 in30.14 in (12:00 pm)30.03 in (1:00 am)
Wind Speed3.7 mph8.1 mph (6:00 pm)
Weather ElementAverage
Wind DirectionNW (313.8 °)

Weather ElementTotal
Precipitation---
Heating Degree Days5.1 (Base 65)
Growing Degree Days9.9 (Base 50)
Averaged from 26 records on August 14, 2013
WEATHER CONDITIONS BREAKOUT
WIND DIRECTION BREAKOUT
WEATHER BY HOUR - AUGUST 14, 2013
[ °C ]   °F
Local TimeTemperatureDewpointHumidityBarometerVisibilityWind DirectionWind SpeedGust SpeedPrecipitationEventsConditions
1:00 AM53.2 °F45.3 °F74 %30.03 inNNW (340°)2.3 mph
2:00 AM54.0 °F46.0 °F65 %30.04 inNNW (330°)2.3 mph
2:00 AM53.6 °F45.5 °F74 %30.04 inNNW (330°)2.3 mph
3:00 AM52.0 °F45.5 °F79 %30.05 inNW (320°)3.5 mph
4:00 AM51.1 °F45.7 °F82 %30.04 inNNW (330°)3.5 mph
5:00 AM50.2 °F45.7 °F85 %30.05 inNNW (340°)1.2 mph
6:00 AM50.0 °F45.9 °F86 %30.06 inNW (320°)3.5 mph
7:00 AM50.0 °F46.2 °F87 %30.09 inNW (310°)3.5 mph
8:00 AM52.0 °F48.0 °F82 %30.10 inNW (320°)3.5 mph
8:00 AM52.0 °F48.0 °F86 %30.10 inNW (320°)3.5 mph
9:00 AM55.8 °F50.0 °F81 %30.11 inNNW (330°)4.6 mph
10:00 AM60.1 °F50.9 °F72 %30.12 inNNW (340°)5.8 mph
11:00 AM63.7 °F50.7 °F63 %30.12 inNorth (360°)5.8 mph
12:00 PM64.9 °F48.4 °F55 %30.14 inNorth (360°)5.8 mph
1:00 PM65.8 °F50.0 °F57 %30.14 inNorth (360°)3.5 mph
2:00 PM67.0 °F47.0 °F38 %30.13 inNorth (350°)4.6 mph
2:00 PM67.1 °F47.3 °F49 %30.13 inNorth (350°)4.6 mph
4:00 PM69.3 °F47.7 °F46 %30.11 inNorth (350°)4.6 mph
5:00 PM69.8 °F49.1 °F48 %30.11 inNNW (330°)3.5 mph
6:00 PM69.6 °F49.6 °F49 %30.11 inWSW (250°)8.1 mph
7:00 PM66.0 °F51.4 °F59 %30.11 inWest (260°)5.8 mph
8:00 PM63.0 °F54.0 °F66 %30.12 inWest (260°)2.3 mph
8:00 PM62.6 °F54.3 °F74 %30.12 inWest (260°)2.3 mph
9:00 PM59.4 °F54.1 °F83 %30.12 inSouth (190°)1.2 mph
10:00 PM58.6 °F52.0 °F79 %30.13 inWest (270°)3.5 mph
11:00 PM57.9 °F51.4 °F79 %30.13 inWest (280°)2.3 mph
Hourly data recorded from CXHA, located miles away from Put In Bay, Ohio







STORIES FROM OUR PARTNERS